Regional Weather Roundup
Issued by NWS

Home | Current Version | Previous Version | Graphics & Text | Print | Product List | Glossary On
Versions: 1 2 3 4 5 6 7 8 9 10 11 12 13 14 15 16 17 18 19 20 21 22 23 24 25 26 27 28 29 30 31 32 33 34 35 36 37 38 39 40 41 42 43 44 45 46 47 48 49 50
000
ASUS43 KTOP 210759
RWRKS

WEATHER ROUNDUP FOR KANSAS
NATIONAL WEATHER SERVICE GOODLAND KS
300 AM CDT TUE OCT 21 2014

NOTE:  "FAIR" INDICATES FEW OR NO CLOUDS BELOW 12,000 FEET WITH NO
SIGNIFICANT WEATHER AND/OR OBSTRUCTIONS TO VISIBILITY.

KSZ001>006-013>018-027>032-041>047-210900-
NORTHWEST KANSAS

CITY           SKY/WX    TMP DP  RH WIND       PRES   REMARKS
GOODLAND       CLEAR     52  40  63 S10       30.10F
HAYS           CLEAR     46  37  71 CALM      30.09S
HILL CITY      CLEAR     50  42  74 CALM      30.08F
RUSSELL        CLEAR     49  44  83 S8        30.07S
$$

KSZ061>065-074>080-084>089-210900-
SOUTHWEST KANSAS

CITY           SKY/WX    TMP DP  RH WIND       PRES   REMARKS
DODGE CITY     PTCLDY    55  45  68 SE8       30.09S
ELKHART          N/A     53  49  86 S7          N/A
GARDEN CITY    CLEAR     51  43  74 SE8       30.08F
GREAT BEND     CLEAR     46  39  76 CALM      30.09S
LIBERAL        CLEAR     57  52  82 E5        30.09S
$$

KSZ066>073-081>083-090>101-210900-
SOUTHEAST KANSAS

CITY           SKY/WX    TMP DP  RH WIND       PRES   REMARKS
CHANUTE        CLEAR     48  47  96 CALM      30.09R
COFFEYVILLE    CLEAR     51  50  96 CALM      30.07S FOG
HUTCHINSON     CLEAR     52  45  77 CALM      30.08S
NEWTON         CLEAR     54  41  62 SE7       30.10S
PARSONS        CLEAR     48  47  96 CALM      30.09S
WICHITA INTL   CLEAR     52  46  80 CALM      30.07S
WICHITA JABRA  CLEAR     52  46  80 CALM      30.07F
WINFIELD       CLEAR     53  52  96 CALM      30.08S
$$

KSZ007>012-019>026-033>040-048>060-102>105-210900-
NORTHEAST KANSAS

CITY           SKY/WX    TMP DP  RH WIND       PRES   REMARKS
CONCORDIA      CLEAR     47  44  90 CALM      30.09R
EMPORIA        CLEAR     50  45  83 CALM      30.09R
LAWRENCE       CLEAR     39  37  92 NW3       30.09S
MANHATTAN      CLEAR     41  40  96 CALM      30.09R
OLATHE IND     FAIR      47  44  90 CALM      30.09S
OLATHE EXE     FAIR      48  44  86 CALM      30.08S
SALINA         CLEAR     48  44  86 CALM      30.09R
TOPEKA BILLARD PTCLDY    44  43  96 CALM      30.10R
TOPEKA FORBES  CLEAR     42  39  89 CALM      30.09R
$$


USA.gov is the U.S. government's official web portal to all federal, state and local government web resources and services.